Lid_Strength_Index
10 14 15 14 14 14 15 16 16 14 13 14 15 15 13 11 12 11 11 10 10 9 7 5 3 3 3 2 2 2 2 2 2 2 3 3 3 2 2 2 1 2 2 2
13 15 13 13 13 14 15 16 16 15 13 14 15 15 13 12 12 11 10 10 10 10 8 6 4 3 3 3 3 2 2 1 1 2 2 2 2 2 2 2 2 2 2 2
16 14 12 13 14 15 16 17 17 17 15 14 15 16 15 14 11 10 9 9 9 9 9 8 6 5 3 3 3 2 2 2 1 1 1 2 2 2 3 2 2 1 1 2
14 13 14 14 15 15 18 14 15 16 17 20 15 22 17 16 15 12 10 10 10 9 9 8 7 7 4 3 3 3 2 2 2 2 2 3 3 4 3 3 3 2 2 2
15 15 15 16 15 14 16 14 16 16 18 18 17 22 17 16 16 14 12 9 9 9 9 8 8 6 6 3 3 3 3 3 2 3 3 3 4 3 3 3 3 3 3 3
14 13 15 14 13 14 13 15 15 16 18 21 19 20 19 19 17 15 12 10 8 8 8 7 6 6 5 5 4 3 3 3 3 3 3 3 4 4 4 3 3 3 3 3
16 16 14 13 16 14 15 17 19 21 22 20 18 20 19 17 14 13 12 11 9 8 7 6 6 6 6 6 4 4 4 4 3 3 3 4 4 4 4 4 4 4 5 4
18 19 15 14 15 18 17 17 20 24 22 21 17 21 18 15 13 12 11 11 10 9 8 7 6 6 5 4 5 5 5 5 4 4 4 4 4 4 3 3 4 3 3 3
18 16 14 13 13 13 15 18 15 18 18 22 19 16 16 14 15 14 14 13 13 12 12 10 8 6 6 6 5 6 6 6 5 5 5 5 5 5 4 4 4 4 3 3
16 19 14 13 13 13 15 14 18 18 23 21 18 17 18 17 16 14 15 15 14 13 13 12 11 10 8 6 5 5 5 5 5 6 6 6 6 6 5 5 5 4 4 4
15 17 16 14 15 15 16 17 16 17 17 22 23 19 15 15 15 15 15 14 14 13 13 13 13 12 11 10 7 6 5 5 5 5 5 6 5 5 5 5 5 4 4 4
14 16 19 15 14 13 14 15 15 19 19 17 20 19 11 14 13 14 14 13 13 13 12 13 13 12 12 12 11 9 7 6 5 5 5 5 5 5 5 5 4 3 5 4
14 16 20 18 17 15 16 14 14 15 17 19 20 19 13 14 13 12 13 13 12 12 12 12 12 12 12 12 12 12 11 8 6 6 6 5 5 6 6 5 5 4 4 4
11 16 16 18 16 14 16 14 13 15 19 18 17 16 13 12 11 11 12 13 12 12 12 13 13 12 11 11 11 11 11 11 10 9 7 7 6 6 6 5 5 5 4 4
13 18 17 15 14 14 15 15 14 15 15 17 16 16 13 12 12 12 13 12 11 11 11 12 12 11 11 11 11 11 11 11 10 10 10 9 7 6 6 6 6 5 5 4
13 19 19 21 15 15 16 14 14 14 14 15 14 14 11 11 13 13 12 12 12 11 11 11 10 9 10 10 10 10 10 11 11 11 10 10 9 8 7 7 7 6 6 5
15 16 17 19 16 17 20 16 15 14 13 14 17 13 12 13 12 11 11 10 11 10 10 10 9 9 9 9 10 11 10 10 11 11 10 10 10 9 8 8 8 7 7 6
14 15 15 19 18 25 16 11 13 13 12 13 13 12 12 11 11 10 9 10 11 10 10 9 8 9 9 8 9 9 9 9 10 10 10 10 9 9 9 9 9 9 8 8
12 13 16 18 19 17 15 13 14 15 14 12 12 11 10 10 11 11 8 8 9 9 8 8 8 8 8 8 7 8 9 8 9 9 10 9 9 9 9 9 9 9 10 10
14 14 14 16 19 21 15 13 12 13 17 10 10 11 11 10 14 12 8 7 7 7 6 7 7 7 7 7 7 7 7 7 7 7 7 8 8 9 9 9 9 9 9 9
19 18 17 17 17 17 12 11 11 17 15 10 10 10 10 11 10 9 8 7 6 6 6 6 6 7 7 6 6 7 7 7 6 6 6 6 7 7 7 8 9 9 9 10
16 18 17 17 18 20 11 11 13 11 10 10 9 9 9 9 9 8 7 7 7 7 6 5 6 6 5 6 6 7 7 6 6 6 7 7 7 7 6 7 8 8 9 10
16 13 14 14 15 10 9 9 7 8 8 8 9 8 8 8 8 7 7 7 7 7 6 6 6 6 6 6 6 8 7 7 6 7 7 7 7 7 7 7 7 8 7 8
13 11 13 12 12 10 8 7 6 7 7 7 7 7 7 7 7 7 7 7 7 6 6 5 5 6 6 6 6 6 7 7 7 8 8 7 7 8 8 6 6 6 7 7
12 11 11 11 10 9 8 8 8 8 7 6 6 6 6 6 7 8 8 8 7 6 5 5 5 6 5 5 6 6 6 7 8 8 7 7 6 7 7 7 6 5 5 5
10 11 12 13 9 9 9 8 7 7 7 7 7 7 6 7 8 8 8 8 7 7 5 5 5 5 5 5 5 5 5 6 7 7 7 6 6 7 7 7 7 5 4 4